GW7015 Weather Reports


time (UTC)temp
C
wind
direction
speed
KPH
gust
KPH
rain 1hr
cm
rain 24hr
cm
rain mn
cm
humidity
%
barometer
mb
20260507120008 8 349 4.8 12.9 0.05 1.07 0.71 93 1008.1
20260507114522 8 300 4.8 8.0 0.03 1.04 0.69 94 1008.2
20260507113017 9 340 1.6 6.4 0.05 1.04 0.69 94 1007.3
20260507111522 9 112 4.8 16.1 0.05 1.02 0.66 94 1007.4
20260507110027 9 319 4.8 9.7 0.08 1.02 0.66 95 1007.6
20260507104508 9 338 3.2 12.9 0.28 1.02 0.66 95 1007.2
20260507103014 9 266 4.8 14.5 0.38 0.99 0.64 95 1007.2
20260507101522 10 300 3.2 11.3 0.43 0.97 0.61 95 1006.9
20260507100032 10 334 6.4 14.5 0.51 0.94 0.58 95 1006.3
20260507094506 11 8 4.8 8.0 0.38 0.74 0.38 96 1006.4
20260507093012 11 287 3.2 9.7 0.25 0.61 0.25 95 1006.3
20260507091519 12 242 4.8 9.7 0.18 0.53 0.18 95 1006.7
20260507090023 12 217 4.8 9.7 0.08 0.43 0.08 95 1007.1
20260507084505 12 285 1.6 6.4 0.00 0.36 0.00 96 1006.4
20260507083008 12 224 3.2 6.4 0.00 0.36 0.00 96 1005.7
20260507081513 12 245 3.2 9.7 0.00 0.36 0.00 96 1005.6
20260507080020 13 248 1.6 9.7 0.00 0.36 0.00 96 1005.7
20260507074524 12 255 1.6 8.0 0.00 0.36 0.00 96 1006.0
20260507073030 12 240 4.8 11.3 0.00 0.36 0.00 96 1006.0
20260507071516 12 223 4.8 14.5 0.00 0.36 0.00 95 1006.4
20260507070016 12 247 4.8 12.9 0.00 0.36 0.00 95 1006.0
20260507064531 12 226 3.2 14.5 0.00 0.36 0.00 95 1006.3
20260507063026 12 174 3.2 11.3 0.00 0.36 0.00 95 1006.4
20260507061529 13 221 3.2 17.7 0.00 0.36 0.00 95 1006.3
20260507060012 13 279 4.8 17.7 0.00 0.36 0.00 95 1006.2
20260507054516 13 188 3.2 20.9 0.00 0.36 0.00 95 1006.5
20260507053024 13 240 4.8 27.4 0.00 0.36 0.00 95 1006.9
20260507051524 13 259 11.3 19.3 0.00 0.36 0.00 95 1007.1
20260507050038 13 218 6.4 16.1 0.00 0.36 0.00 95 1007.0
20260507044516 13 243 6.4 20.9 0.00 0.36 0.00 95 1007.1
20260507043022 13 228 6.4 19.3 0.00 0.36 0.00 95 1007.2
20260507041526 13 208 6.4 19.3 0.00 0.36 0.00 95 1007.6
20260507040029 13 239 6.4 22.5 0.00 0.36 0.00 95 1007.4
20260507034529 13 242 9.7 24.1 0.00 0.36 0.36 95 1007.7
20260507033020 13 136 8.0 32.2 0.00 0.36 0.36 95 1007.3
20260507031521 13 272 8.0 22.5 0.00 0.36 0.36 95 1007.0
20260507030029 13 154 6.4 29.0 0.00 0.36 0.36 95 1007.3
20260507024515 13 120 8.0 22.5 0.00 0.36 0.36 95 1007.7
20260507023015 13 246 11.3 29.0 0.00 0.36 0.36 95 1007.9
20260507021516 13 227 6.4 22.5 0.00 0.36 0.36 94 1008.1
20260507020005 13 232 11.3 22.5 0.03 0.36 0.36 94 1008.3
20260507014512 13 131 8.0 33.8 0.08 0.36 0.36 94 1008.5
20260507013015 13 238 8.0 29.0 0.13 0.36 0.36 94 1008.4
20260507011517 13 252 8.0 20.9 0.15 0.36 0.36 94 1008.6
20260507010023 13 240 9.7 29.0 0.15 0.33 0.33 94 1008.7
20260507004504 13 179 9.7 33.8 0.15 0.28 0.28 94 1008.6
20260507003008 13 249 11.3 25.7 0.15 0.23 0.23 94 1008.5
20260507001516 13 251 8.0 35.4 0.18 0.20 0.20 93 1008.6
20260507000020 14 200 8.0 38.6 0.18 0.18 0.18 93 1008.7
20260506234521 14 221 11.3 37.0 0.13 0.13 0.13 92 1009.1
20260506233023 15 179 8.0 35.4 0.08 0.08 0.08 91 1009.0
20260506231511 15 204 12.9 41.8 0.03 0.03 0.03 88 1009.2
20260506230024 16 246 12.9 30.6 0.00 0.00 0.00 83 1009.3
20260506224524 16 264 14.5 43.5 0.00 0.00 0.00 82 1009.1
20260506223022 16 248 11.3 32.2 0.00 0.00 0.00 80 1009.1
20260506221526 16 221 11.3 30.6 0.00 0.00 0.00 79 1009.3
20260506220017 16 205 11.3 27.4 0.00 0.00 0.00 79 1009.5
20260506214519 16 237 11.3 29.0 0.00 0.00 0.00 78 1009.6
20260506213021 16 181 14.5 35.4 0.00 0.00 0.00 78 1009.6
20260506211533 16 233 11.3 32.2 0.00 0.00 0.00 79 1009.5
20260506210031 16 338 9.7 40.2 0.00 0.00 0.00 78 1009.9
20260506204515 17 131 16.1 32.2 0.00 0.00 0.00 77 1009.9
20260506203021 17 186 11.3 37.0 0.00 0.00 0.00 76 1010.4
20260506201535 17 216 8.0 22.5 0.00 0.00 0.00 76 1010.4
20260506200026 17 210 12.9 32.2 0.00 0.00 0.00 75 1010.5
20260506194512 17 248 9.7 38.6 0.00 0.00 0.00 75 1010.5
20260506193023 17 136 11.3 41.8 0.00 0.00 0.00 75 1010.5
20260506191503 17 146 11.3 40.2 0.00 0.00 0.00 74 1010.8
20260506190006 17 217 12.9 35.4 0.00 0.00 0.00 74 1011.0
20260506184517 18 233 16.1 40.2 0.00 0.00 0.00 72 1011.4
20260506183016 18 252 6.4 49.9 0.00 0.00 0.00 71 1011.6
20260506181519 19 206 14.5 37.0 0.00 0.00 0.00 69 1012.0
20260506180005 18 146 12.9 40.2 0.00 0.00 0.00 72 1012.0
20260506174521 18 236 12.9 33.8 0.00 0.00 0.00 73 1011.6
20260506173014 18 143 12.9 29.0 0.00 0.00 0.00 74 1012.2
20260506171530 18 198 14.5 40.2 0.00 0.00 0.00 73 1012.2
20260506170020 18 193 14.5 41.8 0.00 0.00 0.00 72 1012.6
20260506164504 19 236 9.7 33.8 0.00 0.00 0.00 71 1012.8
20260506163010 19 300 12.9 40.2 0.00 0.00 0.00 69 1012.7
20260506161513 19 257 14.5 33.8 0.00 0.00 0.00 69 1012.9
20260506160018 19 279 16.1 49.9 0.00 0.00 0.00 70 1013.0
20260506154524 18 291 17.7 46.7 0.00 0.00 0.00 72 1013.1
20260506153008 18 240 17.7 38.6 0.00 0.00 0.00 73 1013.1
20260506151511 18 214 12.9 41.8 0.00 0.00 0.00 72 1013.1
20260506150015 18 82 12.9 30.6 0.00 0.00 0.00 71 1013.2
20260506144524 18 243 16.1 37.0 0.00 0.00 0.00 72 1013.3
20260506143024 18 231 16.1 33.8 0.00 0.00 0.00 72 1013.5
20260506141508 18 212 11.3 37.0 0.00 0.00 0.00 74 1013.7
20260506140018 17 258 12.9 43.5 0.00 0.00 0.00 75 1013.7
20260506134520 17 339 12.9 37.0 0.00 0.00 0.00 75 1013.5
20260506133028 17 220 17.7 37.0 0.00 0.00 0.00 75 1013.2
20260506131524 17 93 14.5 40.2 0.00 0.00 0.00 77 1013.2
20260506130009 17 210 9.7 33.8 0.00 0.00 0.00 78 1013.3
20260506124516 16 241 9.7 30.6 0.00 0.00 0.00 79 1013.2
20260506123018 16 262 9.7 29.0 0.00 0.00 0.00 81 1013.5
20260506121521 15 233 14.5 37.0 0.00 0.00 0.00 82 1013.6